Flag for Canada Weather past 2 weeks in Waterloo, Ontario, Canada

Now
75 °F

Partly sunny.


Feels Like: 78 °F
Forecast: 47 / 74 °F
Wind: 13 mph from West

Location: Waterloo Well

Current Time: Jul 25, 2014 at 3:15:30 PM

Latest Report: Jul 25, 2014 at 2:00 PM


Visibility: 9 mi

Pressure: 30.02 "Hg

Humidity: 44%

Dew point: 52 °F

Location of WaterlooLocation

Historic Weather in Waterloo — Graph

°F

Waterloo temperature yesterday

Maximum temperature yesterday: 73 °F (at 4:00 PM)
Minimum temperature yesterday: 50 °F (at 6:00 AM)
Average temperature yesterday: 62 °F

Past Weeks' High & Low Weather Summary

 TemperatureHumidityPressure
High82 °F (Jul 21, 4:00 PM)100% (Jul 11, 3:00 AM)30.26 "Hg (Jul 11, 3:00 AM)
Low45 °F (Jul 17, 4:00 AM)34% (Jul 17, 3:00 PM)29.67 "Hg (Jul 15, 9:00 AM)
Average64 °F77%30.03 "Hg
* Reported Jul 10 2:00 PM — Jul 25 2:00 PM, Waterloo, Weather by CustomWeather, © 2014

Note: Actual official high and low records may vary slightly from our data, if they occured in-between our weather recording intervals... More about our weather records

Advertising

Waterloo weather history for previous 24 hours

 ConditionsComfort  
Time TempWeatherWind HumidityBarometerVisibility
2:00 PM
Jul 25
75 °FPartly sunny.13 mph44%30.02 "Hg9 mi
1:00 PM72 °FPassing clouds.7 mph50%30.03 "Hg9 mi
12:00 PM72 °FSunny.8 mph50%30.05 "Hg9 mi
11:00 AM70 °FSunny.9 mph46%30.08 "Hg9 mi
10:00 AM68 °FSunny.7 mph46%30.08 "Hg9 mi
9:00 AM61 °FSunny.2 mph68%30.07 "Hg9 mi
8:00 AM54 °FSunny.2 mph94%30.09 "Hg9 mi
7:00 AM50 °FClear.3 mph94%30.09 "Hg9 mi
6:04 AM45 °FFog.5 mph100%30.07 "Hg2 mi
5:46 AM46 °FFog.No wind93%30.06 "Hg1 mi
5:02 AM46 °FFog.No wind100%30.05 "Hg2 mi
4:58 AM46 °FFog.2 mph100%30.04 "Hg1 mi
4:00 AM46 °FFog.No wind100%30.03 "Hg1 mi
3:57 AM46 °FFog.No wind100%30.03 "Hg1 mi
3:00 AM48 °FClear.No wind100%30.04 "Hg9 mi
2:00 AM48 °FClear.No wind94%30.05 "Hg9 mi
1:00 AM50 °FClear.2 mph94%30.06 "Hg9 mi
12:00 AM54 °FClear.No wind88%30.07 "Hg9 mi
11:00 PM
Jul 24
57 °FClear.No wind82%30.07 "Hg9 mi
10:00 PM61 °FClear.9 mph72%30.04 "Hg9 mi
9:00 PM61 °FSunny.7 mph68%30.02 "Hg9 mi
8:00 PM66 °FSunny.5 mph56%30.01 "Hg9 mi
7:00 PM72 °FSunny.3 mph44%30.01 "Hg9 mi
6:00 PM72 °FPartly sunny.3 mph41%30.02 "Hg9 mi
5:00 PM73 °FPassing clouds.7 mph38%30.04 "Hg9 mi
4:00 PM73 °FPartly sunny.6 mph38%30.05 "Hg9 mi
3:00 PM72 °FScattered clouds.No wind41%30.06 "Hg9 mi
Weather by CustomWeather, © 2014

See weather overviewHow to use our weather pages